FW5697 Weather Reports


time (UTC)temp
C
wind
direction
speed
KPH
gust
KPH
rain 1hr
cm
rain 24hr
cm
rain mn
cm
humidity
%
barometer
mb
20260506004537 21 0 0.0 0.0 0.00 0.00 0.00 57 1013.6
20260506003030 22 0 0.0 1.6 0.00 0.00 0.00 55 1013.6
20260506001528 23 0 0.0 0.0 0.00 0.00 0.00 48 1013.5
20260506000027 23 0 0.0 3.2 0.00 0.00 0.00 46 1013.6
20260505234600 24 0 0.0 4.8 0.00 0.00 0.00 44 1013.5
20260505233026 25 182 0.0 6.4 0.00 0.00 0.00 42 1013.3
20260505231529 25 211 1.6 8.0 0.00 0.00 0.00 39 1013.2
20260505230028 25 183 1.6 12.9 0.00 0.00 0.00 38 1013.2
20260505224533 26 0 3.2 9.7 0.00 0.00 0.00 40 1013.1
20260505223029 26 200 3.2 11.3 0.00 0.00 0.00 39 1013.1
20260505221530 26 201 3.2 11.3 0.00 0.00 0.00 38 1013.0
20260505220029 27 223 1.6 8.0 0.00 0.00 0.00 39 1013.0
20260505214535 27 140 1.6 6.4 0.00 0.00 0.00 38 1013.1
20260505213030 27 174 3.2 8.0 0.00 0.00 0.00 39 1013.2
20260505211530 27 133 0.0 9.7 0.00 0.00 0.00 43 1013.3
20260505210030 27 223 1.6 6.4 0.00 0.00 0.00 45 1013.3
20260505204529 27 134 1.6 6.4 0.00 0.00 0.00 41 1013.5
20260505203028 27 173 3.2 8.0 0.00 0.00 0.00 41 1013.5
20260505201532 27 173 3.2 11.3 0.00 0.00 0.00 42 1013.8
20260505200031 27 144 3.2 12.9 0.00 0.00 0.00 40 1013.8
20260505194530 27 207 3.2 9.7 0.00 0.00 0.00 39 1014.1
20260505193030 26 182 3.2 9.7 0.00 0.00 0.00 43 1014.1
20260505191528 26 183 3.2 12.9 0.00 0.00 0.00 42 1014.4
20260505190031 25 240 4.8 17.7 0.00 0.00 0.00 43 1014.6
20260505184530 25 200 3.2 12.9 0.00 0.00 0.00 45 1014.8
20260505183041 25 184 3.2 11.3 0.00 0.00 0.00 44 1015.0
20260505181527 25 184 1.6 9.7 0.00 0.00 0.00 46 1015.4
20260505180028 25 198 3.2 12.9 0.00 0.00 0.00 43 1015.7
20260505174528 25 180 3.2 8.0 0.00 0.00 0.00 47 1015.7
20260505173038 24 111 1.6 12.9 0.00 0.00 0.00 49 1015.8
20260505171533 23 186 3.2 9.7 0.00 0.00 0.00 49 1016.0
20260505170032 23 0 1.6 9.7 0.00 0.00 0.00 51 1016.0
20260505164527 23 211 3.2 8.0 0.00 0.00 0.00 53 1016.1
20260505163031 22 205 3.2 8.0 0.00 0.00 0.00 54 1016.2
20260505161529 22 163 3.2 8.0 0.00 0.00 0.00 56 1016.5
20260505153029 21 157 0.0 6.4 0.00 0.00 0.00 58 1016.8
20260505151529 20 0 0.0 8.0 0.00 0.00 0.00 64 1016.8
20260505124528 12 0 0.0 1.6 0.00 0.00 0.00 89 1015.4
20260505123028 11 0 0.0 3.2 0.00 0.00 0.00 90 1015.4
20260505121528 10 0 0.0 0.0 0.00 0.00 0.00 93 1015.5
20260505120028 9 0 0.0 0.0 0.00 0.00 0.00 93 1015.0
20260505114530 8 0 0.0 1.6 0.00 0.00 0.00 93 1015.0
20260505113032 8 0 0.0 0.0 0.00 0.00 0.00 93 1015.0
20260505111529 8 0 0.0 1.6 0.00 0.00 0.00 92 1015.0
20260505101529 8 0 0.0 0.0 0.00 0.00 0.00 90 1014.9
20260505100027 8 0 0.0 0.0 0.00 0.00 0.00 90 1014.7
20260505094530 8 0 0.0 0.0 0.00 0.00 0.00 90 1014.7
20260505093029 8 0 0.0 0.0 0.00 0.00 0.00 89 1014.9
20260505091530 9 0 0.0 1.6 0.00 0.00 0.00 89 1015.1
20260505090027 9 0 0.0 0.0 0.00 0.00 0.00 88 1015.2
20260505084535 9 0 0.0 0.0 0.00 0.00 0.00 89 1015.1
20260505083029 9 0 0.0 1.6 0.00 0.00 0.00 88 1015.0
20260505081528 9 0 0.0 0.0 0.00 0.00 0.00 88 1015.2
20260505080030 10 0 0.0 3.2 0.00 0.00 0.00 87 1015.1
20260505074529 10 0 0.0 0.0 0.00 0.00 0.00 87 1014.7
20260505073039 10 0 0.0 0.0 0.00 0.00 0.00 86 1014.7
20260505071531 10 0 0.0 0.0 0.00 0.00 0.00 85 1014.7
20260505070038 10 0 0.0 0.0 0.00 0.00 0.00 85 1014.7
20260505064527 11 0 0.0 0.0 0.00 0.00 0.00 84 1014.7
20260505063027 11 0 0.0 0.0 0.00 0.00 0.00 82 1014.7
20260505061538 11 0 0.0 0.0 0.00 0.00 0.00 81 1014.8
20260505060030 11 0 0.0 0.0 0.00 0.00 0.00 79 1014.9
20260505054536 12 0 0.0 0.0 0.00 0.00 0.00 79 1015.1
20260505053032 12 0 0.0 0.0 0.00 0.00 0.00 76 1015.1
20260505051531 12 0 0.0 0.0 0.00 0.00 0.00 74 1015.1
20260505041541 13 0 0.0 1.6 0.00 0.00 0.00 74 1015.0
20260505040037 13 0 0.0 0.0 0.00 0.00 0.00 73 1015.1
20260505034532 14 0 0.0 0.0 0.00 0.00 0.00 71 1015.2
20260505033029 15 0 0.0 1.6 0.00 0.00 0.00 69 1015.2
20260505031537 16 0 0.0 3.2 0.00 0.00 0.00 59 1015.4
20260505030028 16 0 0.0 3.2 0.00 0.00 0.00 61 1015.3
20260505024528 15 0 0.0 1.6 0.00 0.00 0.00 67 1015.3
20260505023027 15 0 0.0 0.0 0.00 0.00 0.00 74 1015.3
20260505021528 15 0 0.0 0.0 0.00 0.00 0.00 73 1015.2
20260505020027 16 0 0.0 0.0 0.00 0.00 0.00 71 1015.2
20260505014534 16 0 0.0 0.0 0.00 0.00 0.00 71 1015.1
20260505013030 17 0 0.0 0.0 0.00 0.00 0.00 69 1014.9
20260505011530 17 0 0.0 0.0 0.00 0.00 0.00 66 1014.8
20260505010031 18 0 0.0 0.0 0.00 0.00 0.00 64 1014.6